Погода в Яксе

Погода в Яксе : погода сейчас, прогноз погоды и архив. Всё, что Вы хотите узнать о погоде в Яксе!

Поиск расширенной информации на нашем сайте:

Другие новости

Новости СМИ2

Главная страница сайта

Новости сайта

02.10.2013

Напоминаем, что на нашем новом сайте вы можете получить высокодетализированные прогнозы погоды по пунктам России, СНГ и мира (включающие важные для авиации метеовеличины, такие как направление и скорость ветра, видимость, явления погоды, количество и форма облачности, нижняя и верхняя граница облачности), а также ознакомиться с разнообразными материалами по авиационной метеорологии и подборкой полезных ссылок на эту тему.

Сайт Метеоцентр.Азия посвящён разработке технологий оптимизации авиаметеорологического обслуживания, включая проектирование и перспективное создание нескольких автоматизированных авиаметеорологических систем:
- система выпуска высокодетальных прогностических карт явлений погоды для нижнего воздушного пространства по России и ближнему зарубежью;
- система верификации прогнозов TAF (выпускаемых синоптиками официальных АМСГ РФ и ближнего зарубежья) и AUTOTAF (выпускаемых сайтом Метеоцентр.Азия) - выявление ошибок, онлайн-сопоставление с фактической погодой METAR, автоматическое внесение коррективов в прогнозы при резком отклонении фактической погоды от прогноза, подсчёт оправдываемости прогнозов по элементам и в целом;
- система обработки, анализа и отображения авиаметеорологической информации для применения провайдерами метеорологической информации.

Рекомендуем: Очень выгодно - історія Дніпропетровська - честные цены!

Погода в Яксе - сегодня

Время (UTC), дата Ветер
(°,м/с) 
Видим.   Явления Облачность Т
(°С)
Тd
(°С)
f(%) Тe
(°С)
Pmin
(гПа)
dP
(гПа)
Po
(мм)
O2
(г/м3)
Тmin Tmax R s Состояние
почвы
12 15.01.17 210 (ЮЗ) 10 км  позёмок{снег}  10/10 540 м кучево-дожд. 
[Cb cap]
-5.8 -7.1 90 -9  1025.3  0.5  756  312           
15 15.01.17 210 (ЮЗ) 4{11}  4000 м  слаб. ливневой снег  10/10 480 м кучево-дожд. 
[Cb cap]
-6.1 -7.3 91 -9  1026.1  0.8  757  313    -5.8  0.0     
18 15.01.17 210 (ЮЗ) 4{10}  10 км  позёмок{ливн. осадки}  10/10 400 м кучево-дожд. 
[Cb cap]
-6.3 -7.4 92 -10  1026.2  0.1  757  313           
21 15.01.17 200 (Ю) 3{11}  10 км  позёмок  10/10 360 м кучево-дожд. 
[Cb cap]
-7 -7.9 93 -10  1026.9  0.7  757  314           
00 16.01.17 200 (Ю) 10 км  позёмок  10/10 570 м 
[Sc]
-7.7 -8.8 92 -11  1027.2  0.2  758  315           
03 16.01.17 200 (Ю) 10 км    10/10 500 м 
[Sc]
-9.2 -10.3 92 -13  1027.5  0.2  758  317  -9.2    0.0  59  равномерный
сухой снег
100% 
06 16.01.17 190 (Ю) 4000 м  слаб. ливневой снег  9/9 480 м кучево-дожд. 
[Cb cap]
-12.4 -14.2 86 -16  1028.8  1.1  759  321  -12.4         
09 16.01.17 200 (Ю) 10 км  {ливн. осадки}  8/5 300 м верхняя 
[Cu hum|Ci fib]
-14.2 -16.2 85 -18  1029.5  0.6  759  324           
12 16.01.17 190 (Ю) 10 км  {ливн. осадки}  8/3 300 м верхняя 
[Cu hum|Ci sp]
-14.8 -16.7 85 -17  1030.5  0.8  760  325           
15 16.01.17 200 (Ю) 10 км    ясно 
-15.6 -17.5 85 -18  1030.3  -0.2  759  326    -9.2  0.0     
18 16.01.17 220 (ЮЗ) 10 км  слаб. снег  10/0 средняя 
[As op]
-13.5 -15.3 86 -17  1030.4  0.2  760  323           
21 16.01.17 210 (ЮЗ) 4000 м  слаб. снег  10/0 средняя 
[As op]
-13.1 -15 86 -15  1031.2  0.9  760  323           
00 17.01.17 220 (ЮЗ) 4000 м  слаб. снег  10/0 средняя 
[As op]
-12.9 -14.6 87 -15  1033.5  2.3  762  324           
03 17.01.17 220 (ЮЗ) 4000 м  слаб. снег  8/0 средняя 
[As op]
-13.1 -14.7 88 -13  1032.5  -1  761  324  -15.6    0.9  57  равномерный
сухой снег
100% 
06 17.01.17 210 (ЮЗ) 4000 м  слаб. снег  9/0 средняя, верхняя 
[As op|Ci sp]
-13.2 -14.7 88 -15  1033.5  0.9  762  324           
09 17.01.17 180 (Ю) 4000 м  слаб. снег  8/0 средняя, верхняя 
[As op|Cs]
-11.6 -13.6 85 -14  1034.8  1.1  763  322           
12 17.01.17 180 (Ю) 4000 м  слаб. снег  10/0 средняя 
[As op]
-11.9 -13.9 85 -12  1034.8  763  323           
15 17.01.17 210 (ЮЗ) 4000 м  слаб. снег  6/0 средняя, верхняя 
[As op|Ci sp]
-13.4 -14.9 88 -13  1034.7  -0.2  763  325    -11.3  0.6     
18 17.01.17 190 (Ю) 4000 м  слаб. снег  10/0 средняя 
[As op]
-12.8 -14.3 89 -13  1034.1  -0.5  762  324           
21 17.01.17 190 (Ю) 4000 м  слаб. снег  10/0 средняя 
[As op]
-12.2 -13.7 89 -12  1033.2  -0.9  762  323           
00 18.01.17 200 (Ю) 10 км  {снег}  4/0 верхняя 
[Ci sp]
-15.1 -15.7 95 -15  1033.7  0.3  762  326           
03 18.01.17 тихо ()   10 км    3/0 верхняя 
[Ci sp]
-20.7 -22.3 87 -21  1031.1  -3  760  333  -20.7    0.3  58  равномерный
сухой снег
100% 
06 18.01.17 тихо ()   10 км    6/0 верхняя 
[Cc]
-23 -25 84 -23  1030.5  -0.7  759  336  -23         
09 18.01.17 тихо ()   10 км    6/0 верхняя 
[Ci sp]
-20.4 -22.8 81 -20  1028.5  -1.8  758  332           
12 18.01.17 200 (Ю) 10 км    10/0 средняя 
[Ac As]
-18.4 -20.5 84 -19  1026.5  -1.8  757  328           
Время (UTC), дата Ветер
(°,м/с) 
Видим.   Явления Облачность Т
(°С)
Тd
(°С)
f(%) Тe
(°С)
Pmin
(гПа)
dP
(гПа)
Po
(мм)
O2
(г/м3)
Тmin Tmax R s Состояние
почвы

Для получения пояснительной информации подведите курсор к названию столбца.

ПОГОДА в Яксе - архив

Всё, что Вы хотите узнать о погоде в Яксе - удобно и подробно!

Выберите нужную дату (начиная с 1 января 2015* года) и нажмите кнопку "Найти".
Будут отображены архивные сводки погоды по пункту Якса, начиная с указанной даты.


Отображать данные в формате CSV (для использования в таблицах Excel)


Внимание! Наш архив погоды предназначен исключительно для личного некоммерческого использования в познавательных целях. Если Вам необходимы официальные справки о состоянии погоды (для производственных, юридических, коммерческих и т.п. целей), обращайтесь в органы Росгидромета.

*Примечание: данная дата относится к архиву по метеостанциям СССР (Россия, СНГ, Балтия).
Архив по метеостанциям Зарубежной Европы и Азии (кроме Китая) хранится 10 дней, по другим регионам земного шара (Китай, Африка, Америка, Австралия, Океания) - 1 день.

Якса - район местоположения метеостанции


Название, широта, долгота, высота метеостанции:
Якса 61.8°ш. 56.8°д. 130 м над ур. моря [Российская Федерация]

Дополнительная информация

В oтличие oт бoльшинства пoгoдных сайтoв мы публикуем пoдрoбную метеoинфoрмацию в детальнoм прoфессиoнальнoм фoрмате.

Характеристики температуры и влажнoсти вoздуха измеряются на высoте 2 м в тени вдали oт зданий и деревьев.
Скoрoсть ветра измеряется на высoте 10 м (на урoвне рoста челoвека скoрoсть ветра ниже в 1.5-2 раза). Если метеoстанция нахoдится в гoрoде или в лесу, тo скoрoсть ветра занижена на 2-4 м/с пo сравнению с oткрытым местoм. Скoрoсть ветра над акватoриями крупных рек и oзёр, а также на вершинах хoлмoв на 2-5 м/с выше, чем в oбычных услoвиях.
Атмoсфернoе давление в разных тoчках местнoсти мoжет значительнo oтличаться oт давления на метеoстанции, в зависимoсти oт услoвий рельефа (при пoдъёме на 10 м давление пoнижается примернo на 1 мм рт.ст.).